Location: Veytaux
(46.4185°N, 6.9320°E)
Time: 22:25:53
(UTC+00:00)

Cosmos 2056 Rocket - Pass Details

Date: 27 May 2022
Orbit: 741 x 801 km, 74.0° (Epoch: 03 July)

Event Time Altitude Azimuth Distance (km) Brightness Sun altitude
Exits shadow 02:58:13 - 196° (SSW) 2,763 5.9 -7.5°
Reaches altitude 10° 02:59:28 10° 195° (SSW) 2,274 5.4 -7.4°
Maximum altitude 03:04:38 80° 110° (ESE) 782 3.6 -6.7°
Drops below altitude 10° 03:09:55 10° 24° (NNE) 2,330 7.2 -6.0°
Sets 03:12:20 0° 23° (NNE) 3,272 8.0 -5.7°
